This is the latest recevied weather packets stored in our database for station/object CE2KVL-1. If no packets are shown the sender has not sent any weather packets the latest 10 day(s).
| Time | Temp. | Humidity | Pressure | Rain* | Wind** | Luminosity | Snow |
|---|---|---|---|---|---|---|---|
| 1777389176 | 17.22° C | 42% | 1022.7 hPa | - | - | - | - |
| 1777388876 | 17.22° C | 43% | 1023 hPa | - | - | - | - |
| 1777388276 | 17.22° C | 42% | 1023 hPa | - | - | - | - |
| 1777387976 | 17.22° C | 43% | 1022.9 hPa | - | - | - | - |
| 1777387676 | 17.22° C | 43% | 1022.5 hPa | - | - | - | - |
| 1777387376 | 16.67° C | 43% | 1023.1 hPa | - | - | - | - |
| 1777387076 | 16.67° C | 44% | 1023.1 hPa | - | - | - | - |
| 1777386777 | 16.67° C | 45% | 1022.7 hPa | - | - | - | - |
| 1777386476 | 16.67° C | 45% | 1023 hPa | - | - | - | - |
| 1777386176 | 16.11° C | 44% | 1023.1 hPa | - | - | - | - |
| 1777385876 | 16.11° C | 44% | 1022.9 hPa | - | - | - | - |
| 1777385576 | 16.11° C | 44% | 1023.2 hPa | - | - | - | - |
| 1777385276 | 16.11° C | 45% | 1023 hPa | - | - | - | - |
| 1777384976 | 16.11° C | 46% | 1023.3 hPa | - | - | - | - |
| 1777384676 | 16.11° C | 48% | 1023.4 hPa | - | - | - | - |
| 1777384376 | 15.56° C | 49% | 1023.6 hPa | - | - | - | - |
| 1777384076 | 16.11° C | 50% | 1023.4 hPa | - | - | - | - |
| 1777383776 | 15.56° C | 51% | 1023.6 hPa | - | - | - | - |
| 1777383476 | 15.56° C | 54% | 1023.2 hPa | - | - | - | - |
| 1777383176 | 15.56° C | 54% | 1023.5 hPa | - | - | - | - |
| 1777382876 | 15° C | 56% | 1024 hPa | - | - | - | - |
| 1777382576 | 15° C | 55% | 1023.9 hPa | - | - | - | - |
| 1777382276 | 15° C | 54% | 1024.2 hPa | - | - | - | - |
| 1777381976 | 15° C | 56% | 1024.4 hPa | - | - | - | - |
| 1777381677 | 15° C | 58% | 1024 hPa | - | - | - | - |
* Rain since midnight (hover to see other rain measurements)
** Current wind speed in m/s (hover to see current wind gust speed)